www.pogodaiklimat.ru

Погода и климат >> Архив погоды >> Таиланд >> Тхонг Пха Пхум


ПОГОДА в Тхонг Пха Пхум

  • Прогноз погоды в Тхонг Пха Пхум
  • Монитор погоды в Тхонг Пха Пхум

АРХИВ ПОГОДЫ в Тхонг Пха Пхум

Время (UTC), дата Ветер
(напр.,м/с)
 
Видим.   Явления Облачность Т
(С)
Тd
(С)
f
(%)
Тe
(С)
Тes
(С)
Комфортность P
(гПа)
Po
(гПа)
Тmin
(С)
Tmax
(С)
R
(мм)
R24
(мм)
S
(см)
06 17.02 С 7 5000 м мгла 4/3 600 м
[Cu med, cong Cs]
+33.6 +19.5 44 +39 +43 очень
душно
1011.9 1000.8
09 17.02 СЗ 4 5000 м мгла 3/3 600 м
[Cu med, cong]
+34.5 +20.1 43 +41 +43 опасность
перегрева
1008.6 997.5
12 17.02 штиль 0 4000 м мгла 3/3 600 м
[Cu med, cong]
+30.0 +20.7 57 +37 +37 очень
душно
1009.6 998.4 +35.5
15 17.02 штиль 0 4000 м дымка 3/0
[Cs]
+26.0 +21.8 78 +33 +33 очень
душно
1011.9 1000.6
18 17.02 штиль 0 4000 м дымка 3/0
[Cs]
+23.5 +21.2 87 +30 +30 очень
душно
1012.3 1000.8
21 17.02 штиль 0 4000 м дымка 3/0
[Cs]
+22.0 +20.5 91 +28 +28 душно 1011.1 999.6
00 18.02 штиль 0 4000 м дымка 3/0
[Cs]
+21.0 +19.4 91 +25 +26 комфорт 1012.4 1000.9 +20.7
03 18.02 штиль 0 5000 м мгла 3/3 600 м
[Cu hum]
+28.5 +21.2 65 +36 +47 очень
душно
1014.7 1003.4
06 18.02 штиль 0 5000 м мгла 3/3 600 м
[Cu med, cong]
+35.3 +20.4 42 +42 +58 опасность
перегрева
1011.8 1000.7
09 18.02 СЗ 4 5000 м мгла 5/5 600 м
[Cu med, cong]
+34.8 +18.2 38 +39 +41 очень
душно
1008.9 997.8
12 18.02 штиль 0 5000 м мгла 8/5 600 м
[Cu med, cong Cs]
+30.3 +20.9 57 +38 +38 очень
душно
1010.0 998.8 +36.3
15 18.02 штиль 0 4000 м дымка 3/0
[Cs]
+27.0 +22.3 75 +35 +35 очень
душно
1012.2 1000.8
18 18.02 штиль 0 4000 м дымка 3/0
[Cs]
+23.8 +20.6 82 +30 +30 очень
душно
1012.6 1001.2
21 18.02 штиль 0 4000 м дымка 3/0
[Cs]
+21.8 +19.8 88 +27 +27 душно 1011.5 1000.0
00 19.02 штиль 0 4000 м дымка 5/3 600 м
[Cu hum Ac lent Cs]
+21.0 +18.9 88 +25 +25 комфорт 1013.3 1001.7 +20.7
03 19.02 штиль 0 4000 м дымка 3/0
[Cs]
+28.5 +21.8 67 +37 +51 опасность
солнечного
удара
1015.3 1004.0
06 19.02 СЗ 3 5000 м мгла 1/1 600 м
[Cu hum]
+35.0 +10.8 23 +34 +48 очень
жарко
1012.8 1001.7
09 19.02 штиль 0 5000 м мгла 3/3 600 м
[Cu hum]
+36.0 +15.3 29 +38 +43 очень
душно
1010.2 999.2
12 19.02 штиль 0 5000 м мгла 1/1 600 м
[Cu hum]
+31.5 +17.4 43 +35 +35 очень
душно
1011.7 1000.5 +36.7
15 19.02 штиль 0 4000 м мгла 3/0
[Cs]
+26.8 +19.4 64 +32 +32 очень
душно
1014.7 1003.3
18 19.02 штиль 0 4000 м дымка ясно +23.7 +19.5 77 +29 +29 душно 1015.1 1003.6
21 19.02 штиль 0 4000 м дымка ясно +22.0 +19.2 84 +27 +27 душно 1014.1 1002.5
00 20.02 штиль 0 5000 м дымка ясно +21.0 +18.6 86 +25 +25 комфорт 1015.1 1003.5 +20.2
03 20.02 штиль 0 5000 м мгла ясно +29.0 +20.7 61 +36 +52 опасность
солнечного
удара
1017.0 1005.6
06 20.02 С 4 5000 м мгла ясно +36.0 +14.2 27 +37 +49 душно 1014.1 1003.0
09 20.02 штиль 0 5000 м мгла ясно +37.2 +15.6 28 +39 +47 очень
душно
1010.8 999.8
12 20.02 штиль 0 4000 м мгла ясно +30.5 +18.6 49 +35 +35 очень
душно
1012.2 1001.0 +37.5
15 20.02 штиль 0 4000 м мгла ясно +26.4 +18.6 62 +31 +31 душно 1014.9 1003.5
18 20.02 штиль 0 4000 м дымка ясно +23.5 +18.8 75 +28 +28 душно 1015.2 1003.7
21 20.02 штиль 0 4000 м дымка ясно +22.0 +18.8 82 +27 +27 душно 1014.2 1002.6
00 21.02 штиль 0 4000 м дымка 3/0
[Cs]
+21.2 +18.5 85 +26 +26 душно 1015.4 1003.7 +21.0
03 21.02 штиль 0 5000 м мгла ясно +30.5 +19.9 53 +37 +52 опасность
солнечного
удара
1016.9 1005.6
06 21.02 С 4 5000 м мгла ясно +35.0 +17.1 35 +38 +50 очень
душно
1013.7 1002.6
09 21.02 штиль 0 5000 м мгла ясно +37.3 +17.0 30 +40 +48 очень
душно
1010.6 999.7
12 21.02 штиль 0 5000 м мгла ясно +30.5 +19.9 53 +37 +37 очень
душно
1010.9 999.7 +37.8
15 21.02 штиль 0 4000 м дымка ясно +26.5 +19.6 66 +32 +32 очень
душно
1013.5 1002.1
18 21.02 штиль 0 4000 м дымка ясно +24.0 +19.3 75 +29 +29 душно 1013.1 1001.6
21 21.02 штиль 0 4000 м дымка ясно +22.5 +19.0 81 +28 +28 душно 1012.0 1000.5
00 22.02 штиль 0 5000 м дымка ясно +21.0 +18.8 87 +25 +25 комфорт 1013.1 1001.5 +20.7
03 22.02 штиль 0 5000 м мгла ясно +30.3 +21.4 59 +38 +54 опасность
солнечного
удара
1014.2 1002.9
06 22.02 штиль 0 5000 м мгла ясно +36.3 +16.4 31 +39 +63 опасность
солнечного
удара
1011.4 1000.4
09 22.02 штиль 0 5000 м мгла ясно +38.3 +15.0 25 +39 +47 очень
душно
1009.1 998.2
12 22.02 штиль 0 5000 м мгла ясно +31.6 +19.4 48 +37 +37 очень
душно
1008.9 997.8 +38.7
15 22.02 штиль 0 5000 м мгла ясно +27.5 +19.8 63 +33 +33 очень
душно
1011.9 1000.6
18 22.02 штиль 0 4000 м дымка ясно +24.5 +19.4 73 +30 +30 очень
душно
1011.9 1000.5
21 22.02 штиль 0 4000 м дымка ясно +22.0 +18.8 82 +27 +27 душно 1010.8 999.3
00 23.02 штиль 0 5000 м дымка ясно +20.4 +17.6 84 +24 +24 комфорт 1012.0 1000.4 +19.3
03 23.02 штиль 0 5000 м мгла ясно +29.0 +19.9 58 +35 +51 опасность
солнечного
удара
1013.2 1002.0
06 23.02 С 6 5000 м мгла ясно +36.7 +14.8 27 +38 +45 очень
душно
1010.0 999.1
09 23.02 С 6 5000 м мгла ясно +37.5 +17.5 31 +41 +43 опасность
перегрева
1008.5 997.5
12 23.02 штиль 0 4000 м мгла ясно +32.5 +18.5 43 +37 +37 очень
душно
1008.6 997.5 +38.0
15 23.02 С 5 4000 м мгла ясно +27.5 +19.0 60 +33 +33 очень
душно
1011.5 1000.2
18 23.02 штиль 0 4000 м дымка ясно +24.5 +19.0 71 +29 +29 душно 1011.8 1000.4
21 23.02 штиль 0 4000 м дымка ясно +22.0 +18.0 78 +27 +27 душно 1010.7 999.2
00 24.02 штиль 0 5000 м дымка ясно +20.3 +17.5 84 +23 +24 комфорт 1012.3 1000.7 +20.0
03 24.02 штиль 0 6000 м мгла ясно +29.7 +20.0 56 +36 +52 опасность
солнечного
удара
1013.0 1001.7

 

Местоположение метеостанции Тхонг Пха Пхум (Таиланд): широта 14.75 долгота 98.63 высота над уровнем моря 99 м.

В архиве по умолчанию представлена погода в Тхонг Пха Пхум за последнюю неделю. Архивные данные за месяц целиком и за предыдущие месяцы, начиная с января 2011 года, Вы можете получить, выбрав интересующий диапазон дат из раскрывающегося списка и нажав кнопку "Ввод!".


*Определитесь, кто Вы:
робот инопланетянин человек

Внимание! Время в таблицах - всемирное. Для получения местного времени необходимо прибавить поправку, которая равна 7 ч.

Смотрите также архив погоды в соседних городах и на ближайших метеорологических станциях:

Погода в Тавое (Мьянма) (85 км)
Погода в Йе (Мьянма) (99 км)
Погода в Канчанабури (Таиланд) (126 км)
Погода в У-Тхонг Агромете (Таиланд) (143 км)
Погода в Умпханге (Таиланд) (144 км)
Погода в Суфанбури (Таиланд) (164 км)
Погода в Накхонпатхоме (Таиланд) (166 км)
Погода в Утай Тани (Таиланд) (167 км)
Погода в Чайнат Агромете (Таиланд) (172 км)
Погода в Накхон Саван (Таиланд) (201 км)

Пояснения к столбцам:

Ветер - указаны скорость ветра в м/с - средняя за 10 мин, порывы в срок и между сроками (в фигурных скобках) и направление, откуда дует ветер: С - северный, СВ - северо-восточный, В - восточный, ЮВ - юго-восточный, Ю - южный, ЮЗ - юго-западный, З - западный, СЗ - северо-западный.
Видимость - горизонтальная дальность видимости в метрах или километрах. При видимости от 1 до 10 км при отсутствии осадков обычно наблюдается дымка, при ухудшении видимости до 1 км и менее - туман. В сухую погоду видимость может ухудшаться дымом, пылью или мглою.
Явления - указаны атмосферные явления, наблюдавшиеся в срок или в последний час перед сроком; фигурными скобками обозначены явления, наблюдавшиеся между сроками (за 1-3 часа до срока); квадратными скобками обозначены град или гололедные отложения с указанием их диаметра в мм.
Облачность - указаны через наклонную черту общая и нижняя облачность в баллах и высота нижней границы облаков в метрах; квадратными скобками обозначены формы облаков: Ci - перистые, Cs - перисто-слоистые, Cc - перисто-кучевые, Ac - высококучевые, As - высокослоистые, Sc - слоисто-кучевые, Ns - слоисто-дождевые, Cu - кучевые, Cb - кучево-дождевые. Подробнее классификацию облаков см. в Атласе облаков (PDF).
T - Температура воздуха - температура, измеренная на высоте 2 м над землей.
Td - Температура точки росы - температура, при понижении до которой содержащийся в воздухе водяной пар достигнет насыщения.
f - Относительная влажность воздуха - влажноcть воздуха, измеренная на высоте 2 м над землей.
Te - Эффективная температура - температура, которую ощущает одетый по сезону человек в тени. Характеристика душности погоды. При расчете учитывается влияние влажности воздуха и скорости ветра на теплоощущения человека.
Tes - Эффективная температура на солнце - температура, которую ощущает человек, с поправкой на солнечный нагрев. Характеристика знойности погоды. Зависит от высоты солнца над горизонтом, облачности и скорости ветра. Ночью, в пасмурную погоду, а также при ветре 12 м/с и более поправка равна нулю.
P - Атмосферное давление - приведенное к уровню моря атмосферное давление.
Po - Атмосферное давление - измеренное на уровне метеостанции атмосферное давление.
Tmin - Минимальная температура - минимум температуры воздуха на высоте 2 м над землей.
Tmax - Максимальная температура - максимум температуры воздуха на высоте 2 м над землей.
R - Количество осадков - Количество выпавших осадков за период времени, мм. При наведении курсора мыши на число - период времени, за который выпало указанное количество осадков.
R24 - Количество осадков - Количество выпавших осадков за 24 часа, мм.
S - Снежный покров - Высота снежного покрова, см. При наведении курсора мыши на число - состояние снежного покрова и степень покрытия местности в баллах.